[[{"header":{"parameterUnit":"m.s-1","parameterCategory":1,"la1":30.2991,"la2":30.254,"lo1":-89.0895,"lo2":-89.0444,"dy":0.0017,"dx":0.0017,"nx":28,"ny":28,"refTime":"2023-10-17T03:00:00:Z","depth":0,"parameterNumber":2,"parameterNumberName":"U-component_of_WINDS"},"data":[0,0,0,0,0,0,0,0,0,0,0,0,0,0,0,0,0,0,0,0,0,0,0,0,0,0,0,0,0,0,0,0,0,0,0,0,0,0,0,0,0,0,0,0,0,0,0,0,0,0,0,0,0,0,0,0,0,0,-1.5821,-1.582,0,-1.581,-1.581,-1.581,-1.5793,-1.5793,-1.5792,-1.5792,-1.5781,-1.5781,-1.5781,0,0,0,0,0,0,0,0,0,0,0,0,0,-1.5826,-1.5826,-1.5821,-1.582,-1.582,-1.581,-1.581,-1.581,-1.5793,-1.5793,-1.5792,-1.5792,-1.5781,-1.5781,-1.5781,0,0,0,0,0,0,0,0,0,0,0,0,0,-1.5821,-1.5826,-1.5821,-1.5811,-1.581,-1.581,-1.581,-1.581,-1.5793,-1.5793,-1.5792,-1.5792,-1.5781,-1.5781,-1.5781,-1.579,0,0,-1.5781,-1.5781,0,0,0,0,0,0,0,0,-1.5821,-1.582,-1.5812,-1.5811,-1.581,-1.5802,-1.5808,-1.5803,-1.5793,-1.5799,-1.5792,-1.5791,-1.5788,-1.5788,-1.5787,-1.579,-1.579,-1.5781,-1.5781,-1.5781,-1.5781,0,0,0,0,0,0,0,-1.5821,-1.5821,-1.5816,-1.5812,-1.5811,-1.5807,-1.5806,-1.5807,-1.5797,-1.5799,-1.5797,-1.5796,-1.5788,-1.5787,-1.5787,-1.5789,-1.5781,-1.5781,-1.5781,-1.5781,-1.5801,-1.5801,0,0,0,0,0,0,-1.5823,-1.5821,-1.5817,-1.5816,-1.5814,-1.5807,-1.5806,-1.5805,-1.5797,-1.5795,-1.5797,-1.5796,-1.5787,-1.5787,-1.5786,-1.5797,-1.5781,-1.5781,-1.5781,-1.58,-1.5801,-1.5801,0,0,0,0,0,0,-1.5823,-1.5823,-1.5817,-1.5818,-1.5817,-1.5808,-1.5807,-1.5805,-1.5804,-1.5795,-1.5793,-1.5798,-1.5787,-1.5786,-1.579,-1.5796,-1.5781,-1.5781,-1.58,-1.58,-1.5801,-1.5818,0,0,0,0,0,0,-1.5824,-1.5823,-1.5826,-1.5819,-1.5817,-1.5821,-1.5808,-1.5806,-1.5805,-1.5803,-1.5796,-1.5794,-1.5786,-1.579,-1.579,-1.5796,-1.5781,-1.5799,-1.58,-1.5801,-1.5817,-1.5819,-1.5821,0,0,0,0,0,-1.5824,-1.5831,-1.5826,-1.5826,-1.5821,-1.5821,-1.582,-1.5812,-1.5805,-1.5808,-1.5803,-1.5794,-1.5796,-1.579,-1.579,-1.5796,-1.5799,-1.58,-1.5801,-1.5816,-1.5819,-1.5821,0,0,0,0,0,0,-1.5839,-1.583,-1.5824,-1.583,-1.5826,-1.5818,-1.5822,-1.5815,-1.5813,-1.5812,-1.5801,-1.58,-1.5805,-1.5801,-1.5795,-1.5806,-1.5796,-1.5797,-1.5807,-1.581,-1.5812,-1.5812,-1.5781,0,0,0,0,0,-1.5843,-1.5844,-1.5836,-1.5841,-1.584,-1.5831,-1.5831,-1.5825,-1.5821,-1.5819,-1.5814,-1.5811,-1.581,-1.581,-1.581,-1.5817,-1.5815,-1.5821,-1.5824,-1.5825,-1.5826,-1.583,-1.5833,-1.5805,-1.5805,-1.5805,0,0,-1.5851,-1.5846,-1.5847,-1.5844,-1.5841,-1.5842,-1.583,-1.5832,-1.5833,-1.582,-1.5822,-1.5819,-1.5814,-1.582,-1.5822,-1.5817,-1.5834,-1.5827,-1.5829,-1.5828,-1.5832,-1.5834,-1.5836,-1.5806,-1.5806,-1.5806,0,0,-1.5866,-1.5863,-1.5867,-1.5864,-1.586,-1.5855,-1.5856,-1.5849,-1.5846,-1.5849,-1.584,-1.5841,-1.5841,-1.5838,-1.5837,-1.5854,-1.5846,-1.5854,-1.5865,-1.5869,-1.5871,-1.5873,-1.5879,-1.5881,-1.5855,-1.5855,-1.5855,0,-1.5877,-1.5878,-1.587,-1.5872,-1.5871,-1.5861,-1.5865,-1.5863,-1.5858,-1.5858,-1.5853,-1.5853,-1.585,-1.5855,-1.5859,-1.5858,-1.5859,-1.5854,-1.5872,-1.5873,-1.5875,-1.588,-1.5882,-1.5856,-1.5856,-1.5856,-1.5856,0,-1.5891,-1.5892,-1.5896,-1.5892,-1.5892,-1.5896,-1.5888,-1.5889,-1.5884,-1.5879,-1.5883,-1.5879,-1.5877,-1.5879,-1.5873,-1.5883,-1.588,-1.5874,-1.5863,-1.5879,-1.5883,-1.5885,-1.5857,-1.5857,-1.5857,-1.5857,0,0,-1.5913,-1.5906,-1.5908,-1.5906,-1.5902,-1.5903,-1.5906,-1.5905,-1.5906,-1.5904,-1.5907,-1.5908,-1.5902,-1.5901,-1.5895,-1.5899,-1.5912,-1.5892,-1.5892,-1.5895,-1.5923,-1.5927,-1.593,-1.5908,-1.5908,-1.5909,-1.5923,0,-1.5926,-1.5931,-1.5925,-1.5931,-1.5933,-1.5924,-1.5927,-1.5925,-1.5921,-1.5922,-1.5918,-1.5919,-1.5912,-1.5911,-1.5914,-1.591,-1.5918,-1.5909,-1.591,-1.591,-1.5909,-1.5932,-1.5936,-1.595,-1.5925,-1.5925,-1.5926,0,-1.5942,-1.5941,-1.5948,-1.5944,-1.5944,-1.5947,-1.5946,-1.5947,-1.5945,-1.5942,-1.5941,-1.5935,-1.5939,-1.5931,-1.5935,-1.593,-1.593,-1.5928,-1.5929,-1.5927,-1.5917,-1.593,-1.5954,-1.5956,-1.5929,-1.5928,-1.5928,0,-1.5956,-1.5957,-1.5961,-1.5961,-1.5956,-1.5958,-1.5957,-1.5954,-1.5954,-1.5954,-1.5954,-1.5954,-1.5954,-1.5954,-1.5949,-1.5943,-1.5954,-1.5945,-1.5952,-1.5952,-1.5953,-1.5953,-1.5976,-1.5956,-1.5956,-1.5956,-1.5956,0,-1.5971,-1.5975,-1.5968,-1.597,-1.5975,-1.5969,-1.5974,-1.5971,-1.5969,-1.5971,-1.5965,-1.5967,-1.596,-1.5961,-1.5957,-1.5962,-1.5962,-1.596,-1.5958,-1.596,-1.596,-1.5958,-1.5957,-1.5956,-1.5956,-1.5956,-1.5956,0,-1.5987,-1.5983,-1.5986,-1.5983,-1.5982,-1.5985,-1.5982,-1.5984,-1.5981,-1.5984,-1.5984,-1.5979,-1.5981,-1.5976,-1.5977,-1.5974,-1.5981,-1.5979,-1.5981,-1.598,-1.5987,-1.5986,-1.6009,-1.6012,-1.599,-1.5991,-1.5991,0,-1.5996,-1.5999,-1.5996,-1.5997,-1.5996,-1.5997,-1.5998,-1.5992,-1.5993,-1.5992,-1.5994,-1.5996,-1.5996,-1.5999,-1.5996,-1.5997,-1.5994,-1.6002,-1.5994,-1.5995,-1.5993,-1.5992,-1.5992,-1.6003,-1.6003,-1.6004,-1.6004,0,-1.6012,-1.601,-1.6011,-1.6011,-1.6012,-1.6012,-1.6012,-1.6013,-1.6007,-1.6009,-1.601,-1.6011,-1.6012,-1.6014,-1.6014,-1.6013,-1.6007,-1.6007,-1.6008,-1.6009,-1.601,-1.6008,-1.5985,-1.6006,-1.6006,-1.6005,-1.6005,-1.6005,-1.6024,-1.6027,-1.6025,-1.6026,-1.6026,-1.6026,-1.6028,-1.6026,-1.6027,-1.6028,-1.6025,-1.6027,-1.6027,-1.6027,-1.6026,-1.6028,-1.6025,-1.6027,-1.6027,-1.6027,-1.6028,-1.6011,-1.6029,-1.6029,-1.6028,-1.6028,-1.6028,0,-1.6039,-1.6038,-1.604,-1.604,-1.6041,-1.6037,-1.6036,-1.6038,-1.604,-1.604,-1.6041,-1.6043,-1.6045,-1.6043,-1.6044,-1.6046,-1.6044,-1.6047,-1.6046,-1.6046,-1.6032,-1.603,-1.6049,-1.6049,-1.6049,-1.6049,-1.6049,-1.6049,-1.6047,-1.6051,-1.6049,-1.6053,-1.6052,-1.6055,-1.6055,-1.6055,-1.6055,-1.6058,-1.606,-1.6058,-1.6057,-1.6059,-1.6061,-1.606,-1.606,-1.6064,-1.6062,-1.6049,-1.6047,-1.6045,-1.6043,-1.6064,-1.6064,-1.6076,-1.6076,-1.6076]},{"header":{"parameterUnit":"m.s-1","parameterCategory":1,"la1":30.2991,"la2":30.254,"lo1":-89.0895,"lo2":-89.0444,"dy":0.0017,"dx":0.0017,"nx":28,"ny":28,"refTime":"2023-10-17T03:00:00:Z","depth":0,"parameterNumber":3,"parameterNumberName":"V-component_of_WINDS"},"data":[0,0,0,0,0,0,0,0,0,0,0,0,0,0,0,0,0,0,0,0,0,0,0,0,0,0,0,0,0,0,0,0,0,0,0,0,0,0,0,0,0,0,0,0,0,0,0,0,0,0,0,0,0,0,0,0,0,0,2.762,2.762,0,2.7604,2.7603,2.7603,2.7641,2.7643,2.7644,2.7645,2.7623,2.7621,2.7619,0,0,0,0,0,0,0,0,0,0,0,0,0,2.7679,2.7678,2.762,2.762,2.7619,2.7604,2.7603,2.7603,2.7641,2.7643,2.7644,2.7646,2.7623,2.7621,2.7619,0,0,0,0,0,0,0,0,0,0,0,0,0,2.7657,2.7677,2.762,2.7637,2.7638,2.7604,2.7603,2.7603,2.7641,2.7643,2.7645,2.7646,2.7624,2.7621,2.7619,2.7565,0,0,2.7611,2.761,0,0,0,0,0,0,0,0,2.7658,2.7655,2.7634,2.7635,2.7637,2.7627,2.7616,2.759,2.764,2.764,2.7645,2.7647,2.7622,2.762,2.7612,2.7564,2.7563,2.7611,2.7609,2.7608,2.7607,0,0,0,0,0,0,0,2.766,2.7656,2.7613,2.7634,2.7636,2.7643,2.7642,2.7611,2.762,2.764,2.7643,2.764,2.7623,2.7615,2.7612,2.7563,2.7611,2.7608,2.7607,2.7606,2.7471,2.7469,0,0,0,0,0,0,2.766,2.7657,2.7614,2.7613,2.7653,2.7641,2.764,2.7628,2.7621,2.7622,2.7639,2.7642,2.7618,2.7615,2.7612,2.7549,2.7608,2.7605,2.7604,2.7473,2.747,2.7468,0,0,0,0,0,0,2.7661,2.7656,2.7614,2.7635,2.7631,2.7638,2.7624,2.7627,2.7619,2.762,2.7622,2.7629,2.762,2.7615,2.7577,2.7549,2.7604,2.7602,2.7475,2.7472,2.7469,2.7423,0,0,0,0,0,0,2.7662,2.7656,2.7637,2.7635,2.763,2.7582,2.7623,2.7625,2.7615,2.7619,2.7612,2.7612,2.7621,2.7581,2.7574,2.7546,2.76,2.7478,2.7474,2.747,2.7427,2.7418,2.7411,0,0,0,0,0,2.7664,2.7623,2.7635,2.763,2.7606,2.758,2.7577,2.7589,2.7612,2.7592,2.7594,2.7612,2.7553,2.7577,2.757,2.754,2.7479,2.7475,2.747,2.743,2.742,2.7411,0,0,0,0,0,0,2.7619,2.7623,2.7637,2.7594,2.7587,2.7586,2.7562,2.7578,2.7563,2.7567,2.7582,2.758,2.7538,2.7535,2.7562,2.7488,2.752,2.7514,2.7492,2.7482,2.7474,2.7476,2.7598,0,0,0,0,0,2.7604,2.7584,2.7588,2.755,2.7546,2.7554,2.7543,2.7554,2.7546,2.7542,2.7541,2.7531,2.751,2.7496,2.7477,2.7427,2.7425,2.7403,2.7395,2.7389,2.7383,2.7356,2.7346,2.7453,2.7453,2.7453,0,0,2.7573,2.7573,2.7559,2.7541,2.7536,2.7514,2.7551,2.7526,2.7509,2.7538,2.7503,2.7501,2.7491,2.7447,2.7427,2.7443,2.7353,2.7383,2.7378,2.7376,2.735,2.734,2.7331,2.745,2.7451,2.7451,0,0,2.7505,2.7503,2.7471,2.7466,2.746,2.7466,2.7458,2.7456,2.7457,2.7422,2.7443,2.7423,2.7386,2.7378,2.737,2.7299,2.7316,2.7292,2.7252,2.7225,2.7217,2.7209,2.7184,2.7175,2.7287,2.7287,2.7287,0,2.7466,2.7435,2.7452,2.7425,2.7416,2.7444,2.7411,2.7405,2.7392,2.7384,2.7403,2.7358,2.7353,2.7308,2.7291,2.7283,2.7274,2.7293,2.7217,2.721,2.7203,2.7179,2.7169,2.7284,2.7284,2.7285,2.7285,0,2.7388,2.7366,2.734,2.7329,2.7317,2.7287,2.7299,2.7284,2.7296,2.73,2.7263,2.7259,2.724,2.723,2.724,2.7185,2.7195,2.7215,2.7247,2.719,2.7167,2.7158,2.728,2.7281,2.7282,2.7282,0,0,2.7289,2.7289,2.728,2.7275,2.727,2.7253,2.7224,2.7207,2.7194,2.7184,2.7159,2.7129,2.7148,2.7137,2.7147,2.7124,2.7068,2.7147,2.7147,2.7132,2.7007,2.6992,2.6981,2.708,2.7078,2.7077,2.7008,0,2.7222,2.7175,2.7189,2.714,2.712,2.7146,2.7121,2.7114,2.7117,2.7099,2.7101,2.708,2.7106,2.71,2.7079,2.708,2.7043,2.7085,2.7055,2.7054,2.7057,2.6969,2.6953,2.6888,2.6999,2.6998,2.6997,0,2.7137,2.7126,2.7075,2.7075,2.7067,2.7044,2.703,2.7013,2.7005,2.7009,2.6998,2.7013,2.6983,2.7016,2.6975,2.7003,2.6991,2.699,2.6988,2.6985,2.7021,2.6963,2.6868,2.6858,2.6983,2.6984,2.6985,0,2.707,2.7042,2.7009,2.7004,2.7002,2.6986,2.6984,2.6979,2.6968,2.6955,2.6948,2.6931,2.6921,2.6907,2.6916,2.6939,2.6872,2.6906,2.6873,2.6873,2.6857,2.6858,2.6758,2.6851,2.6851,2.6851,2.6852,0,2.6992,2.6961,2.6979,2.6958,2.6923,2.6939,2.6904,2.6905,2.69,2.6879,2.69,2.6879,2.6893,2.6873,2.688,2.6844,2.684,2.6841,2.6843,2.6839,2.6838,2.6831,2.6835,2.6849,2.6849,2.685,2.685,0,2.6911,2.6922,2.6888,2.689,2.6889,2.6863,2.6864,2.6844,2.685,2.6822,2.6817,2.6824,2.6802,2.681,2.6785,2.679,2.6744,2.6752,2.6747,2.6749,2.6716,2.6719,2.6607,2.6593,2.6695,2.6694,2.6694,0,2.6861,2.6838,2.6838,2.6826,2.6824,2.6804,2.6794,2.6809,2.6797,2.6788,2.6768,2.6749,2.6733,2.6696,2.6698,2.6679,2.6687,2.6649,2.6684,2.6681,2.6686,2.6687,2.6684,2.6642,2.6641,2.664,2.6639,0,2.6771,2.6778,2.6763,2.675,2.6737,2.6727,2.6719,2.6707,2.6722,2.6707,2.6686,2.6674,2.6651,2.663,2.6613,2.661,2.6626,2.6628,2.6619,2.6615,2.6613,2.6613,2.6728,2.663,2.6631,2.6632,2.6632,2.6633,2.6703,2.6684,2.6681,2.6664,2.666,2.6651,2.6633,2.6637,2.662,2.6603,2.6613,2.6587,2.6581,2.6561,2.6555,2.6534,2.6549,2.6536,2.6533,2.6529,2.6525,2.6616,2.6531,2.6531,2.6532,2.6532,2.6532,0,2.6614,2.6614,2.6598,2.6587,2.6573,2.6592,2.6583,2.657,2.6548,2.6542,2.6527,2.6502,2.6482,2.6483,2.6465,2.6448,2.6455,2.6443,2.6444,2.6442,2.6513,2.6523,2.6437,2.6437,2.6437,2.6437,2.6437,2.6437,2.6566,2.6534,2.6541,2.6506,2.6506,2.6483,2.6477,2.6469,2.6464,2.6436,2.642,2.6422,2.6418,2.6399,2.6382,2.6383,2.6374,2.6359,2.6362,2.6428,2.6437,2.6446,2.6455,2.6357,2.6357,2.6293,2.6293,2.6292]}]]